Regional Weather Roundup
Issued by NWS

Home | Current Version | Previous Version | Graphics & Text | Print | Product List | Glossary On
Versions: 1 2 3 4 5 6 7 8 9 10 11 12 13 14 15 16 17 18 19 20 21 22 23 24 25 26 27 28 29 30 31 32 33 34 35 36 37 38 39 40 41 42 43 44 45 46 47 48 49 50
000
ASUS45 KSLC 051510
RWRUT

UTAH REGIONAL WEATHER ROUNDUP
NATIONAL WEATHER SERVICE SALT LAKE CITY UT
800 AM MST THU MAR 05 2015

UTZ001>011-023>025-051600-

NORTHERN UTAH

CITY           SKY/WX    TMP DP  RH WIND       PRES   REMARKS
BRIGHAM CITY   SUNNY     24  19  80 CALM      30.43R
DUGWAY         MOSUNNY   23  18  80 CALM      30.43
HILL AFB       SUNNY     24  12  60 SE15      30.41R WCI  11
LOGAN          SUNNY     23  17  78 NE3       30.41R
OGDEN          SUNNY     25  14  63 S10       30.41R WCI  15
PROVO AIRPORT  SUNNY     25  18  74 SE7       30.45R WCI  17
SALT LAKE CITY MOSUNNY   29  21  72 SE8       30.42R WCI  21
VERNAL         SUNNY     19   8  62 W3        30.39R
WENDOVER       PTCLDY    25  18  74 E6        30.41R WCI  18
HEBER CITY     SUNNY     16  10  79 CALM      30.43R
WEST JORDAN    SUNNY     28  21  74 S10       30.42R WCI  19

$$

UTZ012>022-026-027-051600-

SOUTHERN/CENTRAL UTAH

CITY           SKY/WX    TMP DP  RH WIND       PRES   REMARKS
BLANDING       MOSUNNY   23  13  66 N7        30.46R WCI  14
BRYCE CANYON   PTSUNNY   -6  -9  86 W7        30.37R WCI -20
CEDAR CITY     MOSUNNY   14   9  80 CALM      30.38R
DELTA          SUNNY     23  19  86 CALM      30.43R
HANKSVILLE     SUNNY     27  23  86 CALM      30.43R
MILFORD        SUNNY     21  16  81 S3        30.39S
MOAB/CYNLANDS  SUNNY     29  17  61 SE9       30.40R WCI  20
PRICE          SUNNY     25  11  55 NE5       30.36R WCI  19
ST GEORGE      SUNNY     34  27  75 SE3       30.44R
KANAB          SUNNY     27  14  59 N13       30.43R WCI  16

$$

REGIONAL REPORTS     COLORADO/ARIZONA

CITY           SKY/WX    TMP DP  RH WIND       PRES   REMARKS
CRAIG, CO      MOSUNNY    8   2  76 CALM      30.38R
GRAND JUNCTION SUNNY     26   9  48 E12       30.42R WCI  16
RIFLE          MOSUNNY   19   8  62 CALM      30.44R
MONTROSE       MOSUNNY   20   8  60 SE8       30.45R WCI  10
CORTEZ         SUNNY     20  10  65 E3        30.39R
PAGE, AZ       SUNNY     34  22  61 W3        30.40R
GRAND CANYON   SUNNY     10   7  87 NE3       30.36R
KINGMAN        SUNNY     37  26  64 NE5       30.35R WCI  33
FLAGSTAFF      MOSUNNY   25   9  50 NE7       30.35R WCI  17

$$

REGIONAL REPORTS    NEVADA/IDAHO/WYOMING

CITY           SKY/WX    TMP DP  RH WIND       PRES   REMARKS
LAS VEGAS, NV  CLEAR     44  28  53 SW8       30.34R
ELY            PTCLDY    12   7  80 S13       30.39R WCI  -3
ELKO           PTCLDY    16   9  74 E6        30.41R WCI   7
POCATELLO, ID  CLEAR     26  19  74 N3        30.38R
EVANSTON, WY   MOSUNNY   14   6  70 S8        30.33R WCI   3
ROCK SPRINGS   MOSUNNY   19   9  65 S21       30.28R WCI   3

$$



USA.gov is the U.S. government's official web portal to all federal, state and local government web resources and services.